• In Hungary
  • List of Countries
  • For 7 days
  • Water Temperature
  • Satellite Maps
  • Weather Map
  • News
  • Weather Widgets
  • user-avatar
    Login

    Hourly Weather Maydan

    Today, 19 June, Tuesday

    Time Temperature Precipitation Wind Pressure Humidity
    00:00 +15°C° 0 mm 2 mps 745 mmHg 82%
    01:00 +14°C° 0 mm 2 mps 745 mmHg 84%
    02:00 +14°C° 0 mm 2 mps 745 mmHg 86%
    03:00 +14°C° 0 mm 2 mps 745 mmHg 87%
    04:00 +14°C° 0 mm 2 mps 745 mmHg 88%
    05:00 +15°C° 0 mm 2 mps 745 mmHg 84%
    06:00 +17°C° 0 mm 3 mps 745 mmHg 79%
    07:00 +18°C° 0 mm 3 mps 745 mmHg 75%
    08:00 +20°C° 0 mm 3 mps 745 mmHg 69%
    09:00 +21°C° 0 mm 3 mps 746 mmHg 62%
    10:00 +23°C° 0 mm 4 mps 746 mmHg 56%
    11:00 +25°C° 0 mm 4 mps 745 mmHg 53%
    12:00 +25°C° 0 mm 4 mps 745 mmHg 49%
    13:00 +26°C° 0 mm 4 mps 745 mmHg 46%
    14:00 +26°C° 0 mm 4 mps 745 mmHg 45%
    15:00 +27°C° 0 mm 4 mps 745 mmHg 44%
    16:00 +27°C° 0 mm 4 mps 745 mmHg 43%
    17:00 +26°C° 0 mm 4 mps 745 mmHg 46%
    18:00 +26°C° 0 mm 3 mps 745 mmHg 49%
    19:00 +25°C° 0 mm 2 mps 745 mmHg 52%
    20:00 +24°C° 0 mm 2 mps 745 mmHg 55%
    21:00 +21°C° 0 mm 2 mps 746 mmHg 59%
    22:00 +19°C° 0 mm 2 mps 746 mmHg 63%
    23:00 +19°C° 0 mm 2 mps 746 mmHg 65%

    Tomorrow, 20 June, Wednesday

    Time Temperature Precipitation Wind Pressure Humidity
    00:00 +19°C° 0 mm 2 mps 746 mmHg 67%
    01:00 +18°C° 0 mm 2 mps 746 mmHg 69%
    02:00 +18°C° 0 mm 2 mps 746 mmHg 72%
    03:00 +17°C° 0 mm 2 mps 746 mmHg 75%
    04:00 +17°C° 0 mm 2 mps 746 mmHg 77%
    05:00 +18°C° 0 mm 2 mps 746 mmHg 73%
    06:00 +20°C° 0 mm 2 mps 746 mmHg 69%
    07:00 +21°C° 0 mm 2 mps 746 mmHg 65%
    08:00 +24°C° 0.1 mm 3 mps 746 mmHg 59%
    09:00 +25°C° 0.1 mm 4 mps 746 mmHg 52%
    10:00 +27°C° 0.1 mm 4 mps 746 mmHg 46%
    11:00 +27°C° 0 mm 4 mps 746 mmHg 46%
    12:00 +27°C° 0 mm 4 mps 746 mmHg 45%
    13:00 +27°C° 0 mm 5 mps 746 mmHg 45%
    14:00 +27°C° 0 mm 5 mps 746 mmHg 44%
    15:00 +27°C° 0 mm 5 mps 746 mmHg 44%
    16:00 +27°C° 0 mm 5 mps 746 mmHg 43%
    17:00 +27°C° 0 mm 5 mps 745 mmHg 46%
    18:00 +26°C° 0 mm 4 mps 745 mmHg 48%
    19:00 +26°C° 0 mm 4 mps 745 mmHg 51%
    20:00 +25°C° 0 mm 4 mps 745 mmHg 52%
    21:00 +23°C° 0 mm 4 mps 745 mmHg 54%
    22:00 +21°C° 0 mm 4 mps 745 mmHg 56%
    23:00 +21°C° 0 mm 4 mps 745 mmHg 58%

    Day after tomorrow, 21 June, Thursday

    Time Temperature Precipitation Wind Pressure Humidity
    00:00 +21°C° 0 mm 4 mps 745 mmHg 61%
    01:00 +20°C° 0 mm 4 mps 744 mmHg 63%
    02:00 +20°C° 0 mm 4 mps 745 mmHg 72%
    03:00 +19°C° 0 mm 3 mps 745 mmHg 80%
    04:00 +18°C° 0 mm 3 mps 745 mmHg 89%
    05:00 +19°C° 0 mm 3 mps 745 mmHg 83%
    06:00 +19°C° 0 mm 3 mps 745 mmHg 77%
    07:00 +20°C° 0 mm 3 mps 746 mmHg 72%
    08:00 +21°C° 0 mm 3 mps 746 mmHg 64%
    09:00 +24°C° 0 mm 3 mps 746 mmHg 56%
    10:00 +25°C° 0 mm 3 mps 746 mmHg 48%
    11:00 +26°C° 0 mm 4 mps 746 mmHg 43%
    12:00 +26°C° 0 mm 5 mps 746 mmHg 39%
    13:00 +27°C° 0 mm 6 mps 746 mmHg 35%
    14:00 +27°C° 0 mm 6 mps 746 mmHg 35%
    15:00 +27°C° 0 mm 6 mps 746 mmHg 35%
    16:00 +27°C° 0 mm 6 mps 746 mmHg 36%
    17:00 +26°C° 0 mm 5 mps 746 mmHg 40%
    18:00 +25°C° 0 mm 4 mps 746 mmHg 45%
    19:00 +23°C° 0 mm 4 mps 746 mmHg 50%
    20:00 +22°C° 0 mm 3 mps 746 mmHg 54%
    21:00 +20°C° 0 mm 3 mps 746 mmHg 58%
    22:00 +19°C° 0 mm 2 mps 747 mmHg 62%
    23:00 +18°C° 0 mm 2 mps 747 mmHg 64%

    22 June, Friday

    Time Temperature Precipitation Wind Pressure Humidity
    00:00 +18°C° 0 mm 2 mps 747 mmHg 66%
    01:00 +17°C° 0 mm 2 mps 747 mmHg 68%
    02:00 +17°C° 0 mm 2 mps 747 mmHg 70%
    03:00 +16°C° 0 mm 2 mps 747 mmHg 72%
    04:00 +16°C° 0 mm 2 mps 747 mmHg 74%
    05:00 +17°C° 0 mm 2 mps 748 mmHg 71%
    06:00 +18°C° 0 mm 2 mps 748 mmHg 67%
    07:00 +20°C° 0 mm 3 mps 748 mmHg 63%
    08:00 +21°C° 0 mm 3 mps 748 mmHg 57%
    09:00 +22°C° 0 mm 3 mps 748 mmHg 51%
    10:00 +23°C° 0 mm 4 mps 748 mmHg 45%
    11:00 +25°C° 0 mm 4 mps 748 mmHg 43%
    12:00 +26°C° 0 mm 5 mps 748 mmHg 40%
    13:00 +27°C° 0 mm 5 mps 748 mmHg 37%
    14:00 +27°C° 0 mm 5 mps 748 mmHg 37%
    15:00 +27°C° 0 mm 5 mps 748 mmHg 37%
    16:00 +27°C° 0 mm 5 mps 748 mmHg 37%
    17:00 +26°C° 0 mm 5 mps 748 mmHg 40%
    18:00 +25°C° 0 mm 4 mps 748 mmHg 44%
    19:00 +25°C° 0 mm 3 mps 749 mmHg 48%
    20:00 +22°C° 0 mm 3 mps 749 mmHg 53%
    21:00 +20°C° 0 mm 3 mps 749 mmHg 58%
    22:00 +18°C° 0 mm 3 mps 749 mmHg 63%
    23:00 +18°C° 0 mm 3 mps 750 mmHg 66%

    23 June, Saturday

    Time Temperature Precipitation Wind Pressure Humidity
    00:00 +17°C° 0 mm 2 mps 750 mmHg 69%
    01:00 +16°C° 0 mm 2 mps 750 mmHg 72%
    02:00 +16°C° 0 mm 2 mps 750 mmHg 74%
    03:00 +14°C° 0 mm 3 mps 750 mmHg 75%
    04:00 +14°C° 0 mm 3 mps 750 mmHg 77%
    05:00 +16°C° 0 mm 3 mps 750 mmHg 73%
    06:00 +17°C° 0 mm 3 mps 750 mmHg 69%
    07:00 +18°C° 0 mm 4 mps 751 mmHg 65%
    08:00 +20°C° 0 mm 4 mps 751 mmHg 58%
    09:00 +22°C° 0 mm 4 mps 751 mmHg 51%
    10:00 +23°C° 0 mm 4 mps 751 mmHg 43%
    11:00 +25°C° 0 mm 4 mps 751 mmHg 40%
    12:00 +26°C° 0 mm 4 mps 751 mmHg 37%
    13:00 +27°C° 0 mm 4 mps 750 mmHg 34%
    14:00 +28°C° 0 mm 4 mps 750 mmHg 33%
    15:00 +28°C° 0 mm 4 mps 750 mmHg 33%
    16:00 +28°C° 0 mm 4 mps 750 mmHg 32%
    17:00 +28°C° 0 mm 3 mps 750 mmHg 37%
    18:00 +27°C° 0 mm 3 mps 750 mmHg 41%
    19:00 +26°C° 0 mm 3 mps 750 mmHg 45%
    20:00 +25°C° 0 mm 3 mps 750 mmHg 49%
    21:00 +22°C° 0 mm 3 mps 750 mmHg 53%
    22:00 +20°C° 0 mm 3 mps 750 mmHg 57%
    23:00 +19°C° 0 mm 3 mps 750 mmHg 60%

    24 June, Sunday

    Time Temperature Precipitation Wind Pressure Humidity
    00:00 +19°C° 0 mm 3 mps 751 mmHg 63%
    01:00 +18°C° 0 mm 3 mps 751 mmHg 66%
    02:00 +18°C° 0 mm 3 mps 751 mmHg 68%
    03:00 +18°C° 0 mm 3 mps 751 mmHg 69%
    04:00 +17°C° 0 mm 3 mps 751 mmHg 71%
    05:00 +19°C° 0 mm 3 mps 751 mmHg 65%
    06:00 +20°C° 0 mm 3 mps 751 mmHg 59%
    07:00 +22°C° 0 mm 3 mps 752 mmHg 53%
    08:00 +25°C° 0 mm 3 mps 752 mmHg 47%
    09:00 +27°C° 0 mm 3 mps 752 mmHg 41%
    10:00 +28°C° 0 mm 3 mps 752 mmHg 34%
    11:00 +29°C° 0 mm 3 mps 752 mmHg 32%
    12:00 +30°C° 0 mm 3 mps 751 mmHg 29%
    13:00 +31°C° 0 mm 2 mps 751 mmHg 27%
    14:00 +31°C° 0 mm 2 mps 751 mmHg 26%
    15:00 +32°C° 0 mm 2 mps 751 mmHg 26%
    16:00 +32°C° 0 mm 2 mps 751 mmHg 25%
    17:00 +32°C° 0 mm 2 mps 751 mmHg 29%
    18:00 +31°C° 0 mm 2 mps 751 mmHg 33%
    19:00 +30°C° 0 mm 2 mps 751 mmHg 37%
    20:00 +28°C° 0 mm 3 mps 751 mmHg 40%
    21:00 +26°C° 0 mm 3 mps 751 mmHg 42%
    22:00 +25°C° 0 mm 3 mps 751 mmHg 45%
    23:00 +24°C° 0 mm 3 mps 751 mmHg 46%
    Show more